Hourly Data Report for June 24, 2003

TORONTO CITY
ONTARIO

43°40'00.000" N
79°24'00.000" W
112.50 m
6158355
71508
XTO

Download Data

Hourly Data (June 2003)
Hourly Data Report for June 24, 2003
TIME
LST
Temp Definition
°C
Dew Point Definition
°C
Rel Hum Definition
%
Precip. Amount Definition
mm

Wind Dir Definition
10's deg

Wind Spd Definition
km/h
Visibility Definition
km
Stn Press Definition
kPa
Hmdx Definition


Wind Chill Definition


Weather Definition


00:00 21.7 13.6 60   LegendMM LegendMM LegendMM 100.15 25   LegendNANA
01:00 20.0 12.3 61   LegendMM LegendMM LegendMM 100.15     LegendNANA
02:00 18.7 12.2 66   LegendMM LegendMM LegendMM 100.16     LegendNANA
03:00 17.6 12.8 73   LegendMM LegendMM LegendMM 100.14     LegendNANA
04:00 16.2 12.9 81   LegendMM LegendMM LegendMM 100.17     LegendNANA
05:00 16.0 13.1 83   LegendMM LegendMM LegendMM 100.24     LegendNANA
06:00 17.7 13.3 75   LegendMM LegendMM LegendMM 100.31     LegendNANA
07:00 21.2 13.3 61   LegendMM LegendMM LegendMM 100.36     LegendNANA
08:00 25.0 14.2 51   LegendMM LegendMM LegendMM 100.34 28   LegendNANA
09:00 26.2 14.7 49   LegendMM LegendMM LegendMM 100.38 30   LegendNANA
10:00 25.8 13.3 46   LegendMM LegendMM LegendMM 100.42 29   LegendNANA
11:00 28.0 14.3 43   LegendMM LegendMM LegendMM 100.39 32   LegendNANA
12:00 29.3 16.0 45   LegendMM LegendMM LegendMM 100.37 34   LegendNANA
13:00 30.2 15.8 42   LegendMM LegendMM LegendMM 100.33 35   LegendNANA
14:00 30.8 15.3 39   LegendMM LegendMM LegendMM 100.32 35   LegendNANA
15:00 31.4 15.5 38   LegendMM LegendMM LegendMM 100.26 36   LegendNANA
16:00 30.8 14.6 37   LegendMM LegendMM LegendMM 100.25 35   LegendNANA
17:00 29.1 17.0 48   LegendMM LegendMM LegendMM 100.17 34   LegendNANA
18:00 27.8 16.4 50   LegendMM LegendMM LegendMM 100.15 33   LegendNANA
19:00 26.4 15.8 52   LegendMM LegendMM LegendMM 100.20 31   LegendNANA
20:00 24.6 15.7 58   LegendMM LegendMM LegendMM 100.19 29   LegendNANA
21:00 24.1 17.0 65   LegendMM LegendMM LegendMM 100.24 29   LegendNANA
22:00 24.0 17.0 65   LegendMM LegendMM LegendMM 100.28 29   LegendNANA
23:00 23.3 16.9 67   LegendMM LegendMM LegendMM 100.29 29   LegendNANA

Notes on Data Quality.

Legend

  • E = Estimated
  • M = Missing
  • NA = Not Available*
  • [empty] = Indicates an unobserved value
Date modified: